When you browse on this site, cookies collect data to enhance your experience and personalize the content and advertising you see.
Visit our Privacy Policy to learn more. By continuing to use the site, you agree to this use of cookies and data.
  • In Belgium
  • List of Countries
  • For 7 days
  • Water Temperature
  • Satellite Maps
  • Weather Map
  • Weather Widgets
  • user-avatar
    Login

    Hourly Weather Tuzla

    Today, 21 July, Sunday

    Time Temperature Precipitation Wind Pressure Humidity
    00:00 +20°C° 0 mm 1 mps 724 mmHg 78%
    01:00 +20°C° 0 mm 1 mps 724 mmHg 79%
    02:00 +20°C° 0 mm 1 mps 724 mmHg 80%
    03:00 +20°C° 0 mm 1 mps 724 mmHg 82%
    04:00 +19°C° 0 mm 1 mps 724 mmHg 83%
    05:00 +21°C° 0 mm 1 mps 724 mmHg 78%
    06:00 +23°C° 0 mm 1 mps 724 mmHg 74%
    07:00 +24°C° 0 mm 1 mps 725 mmHg 70%
    08:00 +27°C° 0 mm 1 mps 725 mmHg 63%
    09:00 +27°C° 0 mm 0 mps 725 mmHg 56%
    10:00 +29°C° 0 mm 0 mps 726 mmHg 49%
    11:00 +32°C° 0 mm 1 mps 726 mmHg 46%
    12:00 +32°C° 0 mm 1 mps 725 mmHg 44%
    13:00 +33°C° 0 mm 1 mps 725 mmHg 41%
    14:00 +32°C° 0 mm 1 mps 725 mmHg 43%
    15:00 +32°C° 0 mm 1 mps 725 mmHg 46%
    16:00 +32°C° 0 mm 1 mps 725 mmHg 48%
    17:00 +29°C° 0.1 mm 1 mps 725 mmHg 58%
    18:00 +27°C° 0.1 mm 1 mps 725 mmHg 68%
    19:00 +25°C° 0.1 mm 1 mps 724 mmHg 79%
    20:00 +22°C° 0.1 mm 0 mps 725 mmHg 80%
    21:00 +21°C° 0.1 mm 0 mps 725 mmHg 81%
    22:00 +20°C° 0.1 mm 0 mps 726 mmHg 82%
    23:00 +22°C° 0.5 mm 1 mps 726 mmHg 86%

    Tomorrow, 22 July, Monday

    Time Temperature Precipitation Wind Pressure Humidity
    00:00 +21°C° 0.5 mm 1 mps 726 mmHg 91%
    01:00 +21°C° 0.5 mm 1 mps 726 mmHg 95%
    02:00 +20°C° 0.8 mm 1 mps 726 mmHg 96%
    03:00 +18°C° 0.8 mm 0 mps 726 mmHg 96%
    04:00 +18°C° 0.8 mm 0 mps 726 mmHg 97%
    05:00 +19°C° 0.2 mm 0 mps 726 mmHg 97%
    06:00 +19°C° 0.2 mm 0 mps 726 mmHg 96%
    07:00 +22°C° 0.2 mm 1 mps 727 mmHg 95%
    08:00 +23°C° 0.1 mm 1 mps 727 mmHg 85%
    09:00 +25°C° 0.1 mm 1 mps 727 mmHg 75%
    10:00 +27°C° 0.1 mm 1 mps 727 mmHg 65%
    11:00 +27°C° 0.1 mm 2 mps 727 mmHg 64%
    12:00 +28°C° 0.1 mm 2 mps 727 mmHg 62%
    13:00 +28°C° 0.1 mm 3 mps 727 mmHg 61%
    14:00 +28°C° 0.2 mm 3 mps 727 mmHg 61%
    15:00 +28°C° 0.2 mm 3 mps 727 mmHg 61%
    16:00 +28°C° 0.2 mm 3 mps 727 mmHg 61%
    17:00 +26°C° 0 mm 2 mps 726 mmHg 68%
    18:00 +24°C° 0 mm 1 mps 726 mmHg 75%
    19:00 +23°C° 0 mm 1 mps 726 mmHg 82%
    20:00 +22°C° 0 mm 1 mps 726 mmHg 83%
    21:00 +19°C° 0 mm 0 mps 726 mmHg 85%
    22:00 +18°C° 0 mm 0 mps 726 mmHg 87%
    23:00 +17°C° 0 mm 0 mps 726 mmHg 87%

    Day after tomorrow, 23 July, Tuesday

    Time Temperature Precipitation Wind Pressure Humidity
    00:00 +17°C° 0 mm 0 mps 726 mmHg 88%
    01:00 +17°C° 0 mm 0 mps 726 mmHg 88%
    02:00 +16°C° 0 mm 0 mps 726 mmHg 89%
    03:00 +16°C° 0 mm 0 mps 726 mmHg 90%
    04:00 +16°C° 0 mm 0 mps 725 mmHg 91%
    05:00 +17°C° 0 mm 0 mps 726 mmHg 85%
    06:00 +19°C° 0 mm 0 mps 726 mmHg 79%
    07:00 +21°C° 0 mm 0 mps 726 mmHg 72%
    08:00 +24°C° 0 mm 1 mps 726 mmHg 66%
    09:00 +25°C° 0 mm 2 mps 726 mmHg 59%
    10:00 +27°C° 0 mm 2 mps 726 mmHg 53%
    11:00 +27°C° 0 mm 3 mps 726 mmHg 51%
    12:00 +28°C° 0 mm 3 mps 726 mmHg 50%
    13:00 +28°C° 0 mm 3 mps 726 mmHg 48%
    14:00 +28°C° 0 mm 3 mps 725 mmHg 51%
    15:00 +28°C° 0 mm 3 mps 725 mmHg 54%
    16:00 +27°C° 0 mm 3 mps 725 mmHg 56%
    17:00 +26°C° 0 mm 2 mps 724 mmHg 64%
    18:00 +24°C° 0 mm 2 mps 724 mmHg 72%
    19:00 +22°C° 0 mm 1 mps 724 mmHg 81%
    20:00 +21°C° 0 mm 1 mps 724 mmHg 83%
    21:00 +19°C° 0 mm 0 mps 724 mmHg 85%
    22:00 +18°C° 0 mm 0 mps 725 mmHg 87%
    23:00 +17°C° 0 mm 0 mps 724 mmHg 88%

    24 July, Wednesday

    Time Temperature Precipitation Wind Pressure Humidity
    00:00 +17°C° 0 mm 0 mps 724 mmHg 88%
    01:00 +17°C° 0 mm 0 mps 724 mmHg 89%
    02:00 +17°C° 0 mm 0 mps 724 mmHg 90%
    03:00 +16°C° 0 mm 0 mps 724 mmHg 90%
    04:00 +16°C° 0 mm 0 mps 724 mmHg 91%
    05:00 +18°C° 0 mm 0 mps 724 mmHg 86%
    06:00 +19°C° 0 mm 0 mps 724 mmHg 80%
    07:00 +21°C° 0 mm 0 mps 724 mmHg 75%
    08:00 +24°C° 0 mm 1 mps 725 mmHg 70%
    09:00 +25°C° 0 mm 1 mps 725 mmHg 66%
    10:00 +27°C° 0 mm 2 mps 725 mmHg 61%
    11:00 +27°C° 0 mm 2 mps 725 mmHg 60%
    12:00 +27°C° 0 mm 3 mps 725 mmHg 59%
    13:00 +28°C° 0 mm 3 mps 724 mmHg 58%
    14:00 +28°C° 0 mm 3 mps 724 mmHg 59%
    15:00 +27°C° 0 mm 3 mps 724 mmHg 59%
    16:00 +27°C° 0 mm 3 mps 724 mmHg 59%
    17:00 +26°C° 0 mm 2 mps 724 mmHg 67%
    18:00 +24°C° 0 mm 2 mps 724 mmHg 75%
    19:00 +22°C° 0 mm 1 mps 724 mmHg 83%
    20:00 +21°C° 0 mm 1 mps 724 mmHg 86%
    21:00 +20°C° 0 mm 1 mps 724 mmHg 88%
    22:00 +19°C° 0 mm 1 mps 724 mmHg 91%
    23:00 +19°C° 0 mm 1 mps 724 mmHg 91%

    25 July, Thursday

    Time Temperature Precipitation Wind Pressure Humidity
    00:00 +19°C° 0 mm 1 mps 724 mmHg 91%
    01:00 +18°C° 0 mm 1 mps 724 mmHg 91%
    02:00 +18°C° 0 mm 1 mps 724 mmHg 91%
    03:00 +18°C° 0 mm 1 mps 724 mmHg 91%
    04:00 +18°C° 0 mm 1 mps 724 mmHg 91%
    05:00 +17°C° 0 mm 0 mps 724 mmHg 85%
    06:00 +19°C° 0 mm 0 mps 724 mmHg 80%
    07:00 +21°C° 0 mm 0 mps 725 mmHg 74%
    08:00 +25°C° 0 mm 1 mps 725 mmHg 68%
    09:00 +26°C° 0 mm 1 mps 725 mmHg 61%
    10:00 +28°C° 0 mm 2 mps 725 mmHg 55%
    11:00 +28°C° 0 mm 2 mps 725 mmHg 53%
    12:00 +29°C° 0 mm 2 mps 724 mmHg 52%
    13:00 +30°C° 0 mm 3 mps 724 mmHg 51%
    14:00 +29°C° 0 mm 3 mps 724 mmHg 52%
    15:00 +29°C° 0 mm 3 mps 723 mmHg 53%
    16:00 +29°C° 0 mm 2 mps 723 mmHg 55%
    17:00 +27°C° 0 mm 2 mps 723 mmHg 63%
    18:00 +25°C° 0 mm 1 mps 723 mmHg 71%
    19:00 +23°C° 0 mm 1 mps 722 mmHg 79%
    20:00 +22°C° 0 mm 1 mps 722 mmHg 82%
    21:00 +21°C° 0 mm 1 mps 723 mmHg 85%
    22:00 +20°C° 0 mm 1 mps 723 mmHg 87%
    23:00 +20°C° 0 mm 1 mps 722 mmHg 88%

    26 July, Friday

    Time Temperature Precipitation Wind Pressure Humidity
    00:00 +20°C° 0 mm 1 mps 722 mmHg 89%
    01:00 +20°C° 0 mm 1 mps 722 mmHg 90%
    02:00 +19°C° 0 mm 1 mps 722 mmHg 91%
    03:00 +19°C° 0 mm 1 mps 722 mmHg 91%
    04:00 +19°C° 0 mm 1 mps 722 mmHg 92%
    05:00 +21°C° 0 mm 1 mps 722 mmHg 86%
    06:00 +21°C° 0 mm 0 mps 722 mmHg 81%
    07:00 +22°C° 0 mm 0 mps 722 mmHg 75%
    08:00 +25°C° 0 mm 0 mps 722 mmHg 68%
    09:00 +29°C° 0 mm 1 mps 723 mmHg 61%
    10:00 +31°C° 0 mm 1 mps 723 mmHg 54%
    11:00 +32°C° 0 mm 1 mps 722 mmHg 51%
    12:00 +32°C° 0 mm 1 mps 722 mmHg 49%
    13:00 +33°C° 0 mm 1 mps 722 mmHg 46%
    14:00 +33°C° 0 mm 1 mps 721 mmHg 47%
    15:00 +32°C° 0 mm 1 mps 721 mmHg 48%
    16:00 +32°C° 0 mm 1 mps 721 mmHg 49%
    17:00 +30°C° 0 mm 1 mps 720 mmHg 58%
    18:00 +28°C° 0 mm 1 mps 720 mmHg 66%
    19:00 +24°C° 0 mm 0 mps 720 mmHg 75%
    20:00 +25°C° 0 mm 1 mps 720 mmHg 77%
    21:00 +24°C° 0 mm 1 mps 720 mmHg 79%
    22:00 +23°C° 0 mm 1 mps 720 mmHg 80%
    23:00 +23°C° 0 mm 1 mps 720 mmHg 82%
    Show more